NI4CE-10 Weather Reports


time (UTC)temp
C
wind
direction
speed
KPH
gust
KPH
rain 1hr
cm
rain 24hr
cm
rain mn
cm
humidity
%
barometer
mb
20260502164105 31 195 19.3 40.2 0.00 0.00 0.00 100 1014.5
20260502163605 32 215 17.7 43.5 0.00 0.00 0.00 100 1014.4
20260502163543 32 240 19.3 37.0 0.00 0.00 0.00 100 1014.4
20260502163105 32 240 19.3 37.0 0.00 0.00 0.00 100 1014.4
20260502162605 32 257 27.4 40.2 0.00 0.00 0.00 100 1014.4
20260502162105 32 212 11.3 38.6 0.00 0.00 0.00 100 1014.4
20260502161605 32 247 19.3 33.8 0.00 0.00 0.00 100 1014.3
20260502161105 32 255 30.6 35.4 0.00 0.00 0.00 100 1014.6
20260502160605 31 279 19.3 38.6 0.00 0.00 0.00 100 1014.6
20260502160147 32 226 17.7 35.4 0.00 0.00 0.00 100 1014.5
20260502160105 31 237 17.7 33.8 0.00 0.00 0.00 100 1014.5
20260502152106 31 271 22.5 33.8 0.00 0.00 0.00 100 1014.2
20260502151606 32 240 24.1 27.4 0.00 0.00 0.00 100 1014.2
20260502151408 30 219 16.1 37.0 0.00 0.00 0.00 100 1014.3
20260502151106 31 213 22.5 29.0 0.00 0.00 0.00 100 1014.2
20260502150606 30 219 16.1 37.0 0.00 0.00 0.00 100 1014.3
20260502150217 30 225 17.7 38.6 0.00 0.00 0.00 100 1013.9
20260502150106 30 187 16.1 33.8 0.00 0.00 0.00 100 1014.1
20260502140106 29 216 12.9 20.9 0.00 0.00 0.00 100 1013.7
20260502130606 25 205 6.4 9.7 0.00 0.00 0.00 100 1013.3
20260502130106 24 184 8.0 11.3 0.00 0.00 0.00 100 1013.3
20260502123606 22 165 4.8 8.0 0.00 0.00 0.00 100 1013.4
20260502123106 22 208 0.0 8.0 0.00 0.00 0.00 100 1013.3
20260502122606 22 164 0.0 0.0 0.00 0.00 0.00 100 1013.3
20260502122106 22 164 0.0 0.0 0.00 0.00 0.00 100 1013.3
20260502121606 22 164 0.0 0.0 0.00 0.00 0.00 100 1013.3
20260502121106 22 164 0.0 0.0 0.00 0.00 0.00 100 1013.3
20260502120606 21 164 0.0 0.0 0.00 0.00 0.00 100 1013.2
20260502120106 21 164 0.0 0.0 0.00 0.00 0.00 100 1013.1
20260502115606 20 164 0.0 0.0 0.00 0.00 0.00 100 1013.1
20260502115106 20 164 0.0 0.0 0.00 0.00 0.00 100 1013.1
20260502114606 20 164 0.0 3.2 0.00 0.00 0.00 100 1013.1
20260502114107 20 136 0.0 0.0 0.00 0.00 0.00 100 1013.2
20260502113607 20 136 0.0 0.0 0.00 0.00 0.00 100 1013.1
20260502113107 20 136 0.0 0.0 0.00 0.00 0.00 100 1013.1
20260502112607 19 136 0.0 0.0 0.00 0.00 0.00 100 1013.0
20260502112107 19 136 0.0 0.0 0.00 0.00 0.00 100 1013.0
20260502111607 18 136 0.0 0.0 0.00 0.00 0.00 100 1013.0
20260502111107 18 136 0.0 0.0 0.00 0.00 0.00 100 1012.9
20260502110607 18 136 0.0 4.8 0.00 0.00 0.00 100 1012.8
20260502110107 18 123 0.0 0.0 0.00 0.00 0.00 100 1012.7
20260502105607 18 123 0.0 0.0 0.00 0.00 0.00 100 1012.7
20260502105107 18 123 0.0 4.8 0.00 0.00 0.00 100 1012.8
20260502104607 18 161 0.0 8.0 0.00 0.00 0.00 100 1012.8
20260502104107 18 95 0.0 3.2 0.00 0.00 0.00 100 1012.8
20260502103607 18 223 0.0 4.8 0.00 0.00 0.00 100 1012.8
20260502103107 18 105 0.0 4.8 0.00 0.00 0.00 100 1012.7
20260502102607 18 153 0.0 11.3 0.00 0.00 0.00 100 1012.8
20260502102107 18 136 0.0 11.3 0.00 0.00 0.00 100 1012.9
20260502101607 18 66 0.0 11.3 0.00 0.00 0.00 100 1013.0
20260502101107 18 172 3.2 9.7 0.00 0.00 0.00 100 1013.0
20260502100607 18 151 0.0 4.8 0.00 0.00 0.00 100 1013.2
20260502100107 17 147 0.0 3.2 0.00 0.00 0.00 100 1013.2
20260502091107 16 232 0.0 0.0 0.00 0.00 0.00 100 1013.2
20260502091102 16 232 0.0 0.0 0.00 0.00 0.00 100 1013.4
20260502090607 16 232 0.0 0.0 0.00 0.00 0.00 100 1013.2
20260502090107 16 232 0.0 0.0 0.00 0.00 0.00 100 1013.4
20260502080107 17 232 0.0 0.0 0.00 0.00 0.00 100 1013.4
20260502071108 17 232 0.0 0.0 0.00 0.00 0.00 100 1013.8
20260502070608 17 232 0.0 0.0 0.00 0.00 0.00 100 1013.8
20260502070108 17 232 0.0 0.0 0.00 0.00 0.00 100 1013.8
20260502065608 17 232 0.0 0.0 0.00 0.00 0.00 100 1013.8
20260502065108 17 232 0.0 0.0 0.00 0.00 0.00 100 1013.7
20260502064608 17 232 0.0 0.0 0.00 0.00 0.00 100 1013.7
20260502064108 17 232 0.0 0.0 0.00 0.00 0.00 100 1013.8
20260502063608 17 232 0.0 0.0 0.00 0.00 0.00 100 1013.9
20260502063108 17 232 0.0 0.0 0.00 0.00 0.00 100 1013.8
20260502062608 17 232 0.0 0.0 0.00 0.00 0.00 100 1013.9
20260502062108 17 232 0.0 0.0 0.00 0.00 0.00 100 1014.1
20260502061608 17 232 0.0 0.0 0.00 0.00 0.00 100 1014.2
20260502061108 17 232 0.0 0.0 0.00 0.00 0.00 100 1014.2
20260502060608 17 232 0.0 0.0 0.00 0.00 0.00 100 1014.1
20260502060108 17 232 0.0 0.0 0.00 0.00 0.00 100 1014.1
20260502055608 17 232 0.0 0.0 0.00 0.00 0.00 100 1014.1
20260502055108 17 232 0.0 0.0 0.00 0.00 0.00 100 1014.1
20260502054608 17 232 0.0 0.0 0.00 0.00 0.00 100 1014.2
20260502054108 17 232 0.0 0.0 0.00 0.00 0.00 100 1014.3
20260502053608 17 232 0.0 0.0 0.00 0.00 0.00 100 1014.3
20260502053412 17 232 0.0 0.0 0.00 0.00 0.00 100 1014.3
20260502053108 17 232 0.0 0.0 0.00 0.00 0.00 100 1014.2
20260502052608 17 232 0.0 0.0 0.00 0.00 0.00 100 1014.3
20260502052108 17 232 0.0 0.0 0.00 0.00 0.00 100 1014.3
20260502051608 17 232 0.0 0.0 0.00 0.00 0.00 100 1014.4
20260502051108 17 232 0.0 0.0 0.00 0.00 0.00 100 1014.4
20260502050608 17 232 0.0 0.0 0.00 0.00 0.00 100 1014.5
20260502050108 17 232 0.0 0.0 0.00 0.00 0.00 100 1014.5
20260502045608 18 232 0.0 0.0 0.00 0.00 0.00 100 1014.6
20260502045108 18 232 0.0 0.0 0.00 0.00 0.00 100 1014.7
20260502044608 17 232 0.0 0.0 0.00 0.00 0.00 100 1014.7
20260502044108 17 232 0.0 0.0 0.00 0.00 0.00 100 1014.6
20260502043608 17 232 0.0 0.0 0.00 0.00 0.00 100 1014.6
20260502043108 18 232 0.0 0.0 0.00 0.00 0.00 100 1014.6
20260502042608 17 232 0.0 0.0 0.00 0.00 0.00 100 1014.6
20260502042108 17 232 0.0 0.0 0.00 0.00 0.00 100 1014.7
20260502041608 17 232 0.0 0.0 0.00 0.00 0.00 100 1014.7
20260502041108 17 232 0.0 0.0 0.00 0.00 0.00 100 1014.7
20260502040608 17 232 0.0 0.0 0.00 0.00 0.00 100 1014.6
20260502040108 17 232 0.0 0.0 0.00 0.00 0.00 100 1014.6
20260502035608 18 232 0.0 0.0 0.00 0.00 0.00 100 1014.6
20260502035109 18 232 0.0 0.0 0.00 0.00 0.00 100 1014.7
20260502034609 18 232 0.0 0.0 0.00 0.00 0.00 100 1014.7
20260502034109 18 232 0.0 0.0 0.00 0.00 0.00 100 1014.8
20260502033609 18 232 0.0 0.0 0.00 0.00 0.00 100 1014.8
20260502033109 18 232 0.0 0.0 0.00 0.00 0.00 100 1014.8
20260502032609 18 232 0.0 0.0 0.00 0.00 0.00 100 1014.7
20260502032109 18 232 0.0 0.0 0.00 0.00 0.00 100 1014.8
20260502031609 18 232 0.0 0.0 0.00 0.00 0.00 100 1014.8
20260502031109 18 232 0.0 0.0 0.00 0.00 0.00 100 1014.9
20260502030609 18 232 0.0 0.0 0.00 0.00 0.00 100 1015.0
20260502030109 18 232 0.0 0.0 0.00 0.00 0.00 100 1014.9
20260502025609 18 232 0.0 0.0 0.00 0.00 0.00 100 1014.9
20260502025109 18 232 0.0 0.0 0.00 0.00 0.00 100 1015.0
20260502024609 18 232 0.0 0.0 0.00 0.00 0.00 100 1015.0
20260502024109 18 232 0.0 0.0 0.00 0.00 0.00 100 1015.0
20260502023609 19 232 0.0 0.0 0.00 0.00 0.00 100 1014.9
20260502023109 18 232 0.0 0.0 0.00 0.00 0.00 100 1014.9
20260502022609 19 232 0.0 0.0 0.00 0.00 0.00 100 1014.9
20260502022109 19 232 0.0 0.0 0.00 0.00 0.00 100 1014.9
20260502021609 19 232 0.0 0.0 0.00 0.00 0.00 100 1015.0
20260502021109 19 232 0.0 0.0 0.00 0.00 0.00 100 1015.1
20260502020609 19 232 0.0 0.0 0.00 0.00 0.00 100 1014.9
20260502020109 20 232 0.0 0.0 0.00 0.00 0.00 100 1015.0
20260502015609 20 232 0.0 0.0 0.00 0.00 0.00 100 1014.9
20260502015109 20 232 0.0 0.0 0.00 0.00 0.00 100 1014.9
20260502014609 20 232 0.0 0.0 0.00 0.00 0.00 100 1014.8
20260502014109 20 232 0.0 0.0 0.00 0.00 0.00 100 1014.8
20260502013609 20 232 0.0 0.0 0.00 0.00 0.00 100 1014.6
20260502013109 20 232 0.0 0.0 0.00 0.00 0.00 100 1014.7
20260502012609 20 232 0.0 0.0 0.00 0.00 0.00 100 1014.6
20260502012109 21 232 0.0 0.0 0.00 0.00 0.00 100 1014.6
20260502011609 21 232 0.0 0.0 0.00 0.00 0.00 100 1014.5
20260502011109 21 232 0.0 0.0 0.00 0.00 0.00 100 1014.4
20260502010609 21 232 0.0 0.0 0.00 0.00 0.00 100 1014.4
20260502010109 22 232 0.0 0.0 0.00 0.00 0.00 100 1014.3
20260502005609 22 232 0.0 0.0 0.00 0.00 0.00 100 1014.2
20260502005110 22 232 0.0 0.0 0.00 0.00 0.00 100 1014.2
20260502004609 22 232 0.0 0.0 0.00 0.00 0.00 100 1014.2
20260502004109 23 232 0.0 3.2 0.00 0.00 0.00 100 1014.1
20260502003609 23 260 0.0 0.0 0.00 0.00 0.00 100 1014.1
20260502003109 23 260 0.0 0.0 0.00 0.00 0.00 100 1013.9
20260502002609 23 260 0.0 4.8 0.00 0.00 0.00 100 1013.9
20260502002109 24 275 0.0 6.4 0.00 0.00 0.00 100 1013.8
20260502001731 25 241 0.0 9.7 0.00 0.00 0.00 100 1013.6
20260502001609 24 244 0.0 6.4 0.00 0.00 0.00 100 1013.8
20260502001109 24 247 4.8 8.0 0.00 0.00 0.00 100 1013.8
20260502000609 25 251 4.8 6.4 0.00 0.00 0.00 100 1013.7
20260502000109 25 241 0.0 9.7 0.00 0.00 0.00 100 1013.6
20260501235609 25 248 3.2 8.0 0.00 0.00 0.00 100 1013.6
20260501235110 25 229 3.2 8.0 0.00 0.00 0.00 100 1013.5
20260501234610 26 232 4.8 9.7 0.00 0.00 0.00 100 1013.5
20260501234110 26 241 3.2 8.0 0.00 0.00 0.00 100 1013.4
20260501233610 26 232 4.8 12.9 0.00 0.00 0.00 100 1013.3
20260501233110 26 240 8.0 9.7 0.00 0.00 0.00 100 1013.3
20260501232610 26 250 4.8 11.3 0.00 0.00 0.00 100 1013.2
20260501232110 26 257 4.8 11.3 0.00 0.00 0.00 100 1013.2
20260501231610 26 251 8.0 12.9 0.00 0.00 0.00 100 1013.1
20260501231110 27 234 8.0 16.1 0.00 0.00 0.00 100 1013.0
20260501230610 27 257 9.7 11.3 0.00 0.00 0.00 100 1013.0
20260501230110 27 132 0.0 11.3 0.00 0.00 0.00 100 1012.9
20260501225611 27 260 9.7 12.9 0.00 0.00 0.00 100 1012.9
20260501225110 27 282 8.0 14.5 0.00 0.00 0.00 100 1012.9
20260501224610 27 240 6.4 11.3 0.00 0.00 0.00 100 1012.9
20260501224110 27 278 6.4 16.1 0.00 0.00 0.00 100 1012.9
20260501223610 28 324 4.8 16.1 0.00 0.00 0.00 100 1012.8
20260501223110 27 236 0.0 12.9 0.00 0.00 0.00 100 1012.9
20260501222610 28 264 9.7 14.5 0.00 0.00 0.00 100 1012.8
20260501222110 28 250 6.4 14.5 0.00 0.00 0.00 100 1012.9
20260501221610 27 272 12.9 17.7 0.00 0.00 0.00 100 1012.8
20260501221110 28 260 9.7 19.3 0.00 0.00 0.00 100 1012.8
20260501220610 28 271 6.4 16.1 0.00 0.00 0.00 100 1012.8
20260501220504 28 230 12.9 17.7 0.00 0.00 0.00 100 1012.8
20260501220110 28 230 12.9 17.7 0.00 0.00 0.00 100 1012.8
20260501215610 28 222 12.9 17.7 0.00 0.00 0.00 100 1012.7
20260501215253 28 248 6.4 19.3 0.00 0.00 0.00 100 1012.6
20260501215110 28 248 6.4 19.3 0.00 0.00 0.00 100 1012.6
20260501214610 28 240 14.5 22.5 0.00 0.00 0.00 100 1012.7
20260501214110 29 234 14.5 19.3 0.00 0.00 0.00 100 1012.8
20260501213610 30 233 11.3 25.7 0.00 0.00 0.00 100 1012.9
20260501213110 30 241 20.9 25.7 0.00 0.00 0.00 100 1012.9
20260501212610 29 232 14.5 20.9 0.00 0.00 0.00 100 1012.7
20260501212110 29 236 8.0 19.3 0.00 0.00 0.00 100 1012.6
20260501211610 30 229 12.9 17.7 0.00 0.00 0.00 100 1012.6
20260501211110 30 331 1.6 22.5 0.00 0.00 0.00 100 1012.8
20260501210610 30 254 16.1 25.7 0.00 0.00 0.00 100 1012.9
20260501210110 30 234 12.9 20.9 0.00 0.00 0.00 100 1012.9
20260501205610 30 250 19.3 20.9 0.00 0.00 0.00 100 1013.0
20260501205110 31 274 12.9 20.9 0.00 0.00 0.00 100 1012.8
20260501204941 31 255 9.7 16.1 0.00 0.00 0.00 100 1013.0
20260501204610 31 281 3.2 17.7 0.00 0.00 0.00 100 1012.8
20260501204110 31 255 9.7 16.1 0.00 0.00 0.00 100 1013.0
20260501204104 32 251 9.7 17.7 0.00 0.00 0.00 100 1013.2
20260501203610 30 243 11.3 20.9 0.00 0.00 0.00 100 1012.9
20260501203110 31 229 4.8 20.9 0.00 0.00 0.00 100 1013.1
20260501202610 31 260 12.9 20.9 0.00 0.00 0.00 100 1013.0
20260501202110 31 248 16.1 25.7 0.00 0.00 0.00 100 1013.2
20260501201610 31 232 11.3 22.5 0.00 0.00 0.00 100 1013.2
20260501201110 31 247 9.7 20.9 0.00 0.00 0.00 100 1013.2
20260501200610 32 251 9.7 17.7 0.00 0.00 0.00 100 1013.2
20260501200110 32 277 6.4 16.1 0.00 0.00 0.00 100 1013.5
20260501195610 33 312 8.0 19.3 0.00 0.00 0.00 100 1013.6
20260501195111 32 293 6.4 22.5 0.00 0.00 0.00 100 1013.7
20260501194611 33 265 14.5 19.3 0.00 0.00 0.00 100 1013.8
20260501194111 32 265 1.6 17.7 0.00 0.00 0.00 100 1013.8
20260501193611 33 265 11.3 17.7 0.00 0.00 0.00 100 1014.0
20260501193111 32 300 3.2 22.5 0.00 0.00 0.00 100 1014.1
20260501192611 32 288 11.3 17.7 0.00 0.00 0.00 100 1014.2
20260501192111 33 271 0.0 17.7 0.00 0.00 0.00 100 1014.2
20260501191611 33 272 12.9 14.5 0.00 0.00 0.00 100 1014.3
20260501191111 33 300 12.9 19.3 0.00 0.00 0.00 100 1014.2
20260501190611 32 265 14.5 19.3 0.00 0.00 0.00 100 1014.3
20260501190111 32 255 9.7 19.3 0.00 0.00 0.00 100 1014.3
20260501185611 32 243 14.5 22.5 0.00 0.00 0.00 100 1014.5
20260501185111 33 260 1.6 19.3 0.00 0.00 0.00 100 1014.5
20260501184611 32 258 11.3 24.1 0.00 0.00 0.00 100 1014.6
20260501184111 33 282 8.0 16.1 0.00 0.00 0.00 100 1014.6
20260501183611 32 187 9.7 22.5 0.00 0.00 0.00 100 1014.6
20260501183111 32 271 8.0 20.9 0.00 0.00 0.00 100 1014.6
20260501182611 32 222 11.3 20.9 0.00 0.00 0.00 100 1014.7
20260501182111 32 265 0.0 16.1 0.00 0.00 0.00 100 1014.7
20260501181649 31 282 4.8 19.3 0.00 0.00 0.00 100 1014.7
20260501181611 32 230 12.9 22.5 0.00 0.00 0.00 100 1014.7
20260501181111 33 248 17.7 22.5 0.00 0.00 0.00 100 1014.7
20260501180611 31 282 4.8 19.3 0.00 0.00 0.00 100 1014.7
20260501180111 32 253 11.3 12.9 0.00 0.00 0.00 100 1014.8
20260501175611 31 5 3.2 24.1 0.00 0.00 0.00 100 1014.9
20260501175111 33 236 19.3 20.9 0.00 0.00 0.00 100 1014.9
20260501174611 32 247 9.7 24.1 0.00 0.00 0.00 100 1015.0
20260501174111 33 282 9.7 22.5 0.00 0.00 0.00 100 1014.9
20260501173611 33 248 11.3 19.3 0.00 0.00 0.00 100 1015.1
20260501173111 34 240 11.3 17.7 0.00 0.00 0.00 100 1015.1
20260501172954 32 298 8.0 20.9 0.00 0.00 0.00 100 1015.2
20260501172611 33 317 6.4 17.7 0.00 0.00 0.00 100 1015.1
20260501172111 32 298 8.0 20.9 0.00 0.00 0.00 100 1015.2
20260501171611 32 243 4.8 17.7 0.00 0.00 0.00 100 1015.3
20260501171111 34 260 9.7 17.7 0.00 0.00 0.00 100 1015.3
20260501170611 34 227 4.8 16.1 0.00 0.00 0.00 100 1015.3
20260501170111 34 264 14.5 19.3 0.00 0.00 0.00 100 1015.3
20260501165611 34 243 12.9 17.7 0.00 0.00 0.00 100 1015.4
20260501165111 33 282 8.0 19.3 0.00 0.00 0.00 100 1015.4
20260501164611 32 189 3.2 12.9 0.00 0.00 0.00 100 1015.4